| time (UTC) | temp C | wind direction | speed KPH | gust KPH | rain 1hr cm | rain 24hr cm | rain mn cm | humidity % | barometer mb |
| 20260906193532 | 25 | 340 | 6.4 | 16.1 | 0.03 | 0.15 | 0.15 | 83 | 1013.1 |
| 20260906193056 | 24 | 343 | 3.2 | 14.5 | 0.03 | 0.15 | 0.15 | 84 | 1013.1 |
| 20260906192531 | 23 | 14 | 3.2 | 11.3 | 0.03 | 0.15 | 0.15 | 84 | 1013.2 |
| 20260906192032 | 23 | 36 | 3.2 | 11.3 | 0.03 | 0.15 | 0.15 | 83 | 1013.2 |
| 20260906191612 | 23 | 360 | 1.6 | 6.4 | 0.03 | 0.15 | 0.15 | 83 | 1013.3 |
| 20260906191035 | 23 | 0 | 1.6 | 6.4 | 0.03 | 0.15 | 0.15 | 82 | 1013.3 |
| 20260906190533 | 23 | 352 | 1.6 | 8.0 | 0.03 | 0.15 | 0.15 | 81 | 1013.4 |
| 20260906190052 | 23 | 98 | 0.0 | 8.0 | 0.00 | 0.13 | 0.13 | 80 | 1013.4 |
| 20260906185534 | 23 | 59 | 1.6 | 8.0 | 0.00 | 0.13 | 0.13 | 79 | 1013.4 |
| 20260906185034 | 23 | 42 | 1.6 | 6.4 | 0.00 | 0.13 | 0.13 | 78 | 1013.4 |
| 20260906184602 | 23 | 23 | 1.6 | 8.0 | 0.00 | 0.13 | 0.13 | 77 | 1013.3 |
| 20260906184031 | 23 | 15 | 3.2 | 8.0 | 0.00 | 0.13 | 0.13 | 75 | 1013.4 |
| 20260906183534 | 23 | 352 | 3.2 | 14.5 | 0.00 | 0.13 | 0.13 | 74 | 1013.5 |
| 20260906183103 | 23 | 28 | 3.2 | 14.5 | 0.00 | 0.13 | 0.13 | 74 | 1013.5 |
| 20260906182536 | 23 | 352 | 3.2 | 14.5 | 0.00 | 0.13 | 0.13 | 74 | 1013.6 |
| 20260906182037 | 23 | 5 | 3.2 | 12.9 | 0.00 | 0.13 | 0.13 | 75 | 1013.6 |
| 20260906181607 | 23 | 27 | 3.2 | 12.9 | 0.00 | 0.13 | 0.13 | 75 | 1013.7 |
| 20260906181032 | 23 | 350 | 1.6 | 8.0 | 0.00 | 0.13 | 0.13 | 75 | 1013.7 |
| 20260906180535 | 23 | 333 | 1.6 | 16.1 | 0.00 | 0.13 | 0.13 | 75 | 1013.8 |
| 20260906180051 | 23 | 74 | 3.2 | 16.1 | 0.00 | 0.13 | 0.13 | 74 | 1014.0 |
| 20260906175532 | 23 | 335 | 3.2 | 16.1 | 0.00 | 0.13 | 0.13 | 73 | 1013.9 |
| 20260906175034 | 23 | 345 | 3.2 | 16.1 | 0.00 | 0.13 | 0.13 | 72 | 1013.9 |
| 20260906174610 | 23 | 5 | 3.2 | 16.1 | 0.00 | 0.13 | 0.13 | 72 | 1013.9 |
| 20260906174033 | 23 | 12 | 3.2 | 12.9 | 0.00 | 0.13 | 0.13 | 73 | 1013.7 |
| 20260906173531 | 23 | 352 | 4.8 | 12.9 | 0.00 | 0.13 | 0.13 | 73 | 1013.5 |
| 20260906173102 | 23 | 337 | 4.8 | 14.5 | 0.00 | 0.13 | 0.13 | 73 | 1013.6 |
| 20260906172531 | 23 | 15 | 6.4 | 14.5 | 0.00 | 0.13 | 0.13 | 72 | 1013.5 |
| 20260906172030 | 23 | 328 | 4.8 | 14.5 | 0.00 | 0.13 | 0.13 | 72 | 1013.5 |
| 20260906171552 | 23 | 13 | 4.8 | 14.5 | 0.00 | 0.13 | 0.13 | 73 | 1013.4 |
| 20260906171031 | 23 | 15 | 3.2 | 11.3 | 0.00 | 0.13 | 0.13 | 74 | 1013.5 |
| 20260906170535 | 23 | 13 | 3.2 | 12.9 | 0.00 | 0.13 | 0.13 | 75 | 1013.4 |
| 20260906165534 | 23 | 341 | 3.2 | 12.9 | 0.00 | 0.13 | 0.13 | 78 | 1013.3 |
| 20260906165051 | 23 | 13 | 3.2 | 8.0 | 0.00 | 0.13 | 0.13 | 79 | 1013.3 |
| 20260906164600 | 23 | 315 | 3.2 | 8.0 | 0.00 | 0.13 | 0.13 | 79 | 1013.1 |
| 20260906164033 | 23 | 5 | 1.6 | 6.4 | 0.00 | 0.13 | 0.13 | 79 | 1013.1 |
| 20260906163534 | 23 | 352 | 0.0 | 4.8 | 0.00 | 0.13 | 0.13 | 79 | 1013.1 |
| 20260906163102 | 23 | 0 | 0.0 | 4.8 | 0.00 | 0.13 | 0.13 | 79 | 1013.0 |
| 20260906162532 | 23 | 56 | 0.0 | 4.8 | 0.00 | 0.13 | 0.13 | 79 | 1013.0 |
| 20260906162032 | 23 | 16 | 0.0 | 4.8 | 0.00 | 0.13 | 0.13 | 79 | 1013.0 |
| 20260906161610 | 22 | 0 | 0.0 | 4.8 | 0.00 | 0.13 | 0.13 | 79 | 1013.0 |
| 20260906161032 | 22 | 352 | 0.0 | 1.6 | 0.00 | 0.13 | 0.13 | 79 | 1012.9 |
| 20260906160531 | 22 | 0 | 0.0 | 0.0 | 0.00 | 0.13 | 0.13 | 79 | 1013.0 |
| 20260906160051 | 22 | 0 | 0.0 | 1.6 | 0.00 | 0.13 | 0.13 | 79 | 1012.9 |
| 20260906155532 | 22 | 0 | 0.0 | 1.6 | 0.00 | 0.13 | 0.13 | 79 | 1012.8 |
| 20260906155032 | 22 | 0 | 0.0 | 1.6 | 0.00 | 0.13 | 0.13 | 78 | 1012.9 |
| 20260906154559 | 22 | 0 | 0.0 | 1.6 | 0.00 | 0.13 | 0.13 | 78 | 1012.9 |
| 20260906154033 | 22 | 0 | 0.0 | 1.6 | 0.00 | 0.13 | 0.13 | 78 | 1012.8 |
| 20260906153534 | 21 | 0 | 0.0 | 1.6 | 0.00 | 0.13 | 0.13 | 79 | 1012.8 |
| 20260906153053 | 21 | 0 | 0.0 | 1.6 | 0.00 | 0.13 | 0.13 | 79 | 1012.9 |
| 20260906152531 | 21 | 0 | 0.0 | 4.8 | 0.00 | 0.13 | 0.13 | 79 | 1012.9 |
| 20260906152036 | 21 | 0 | 0.0 | 4.8 | 0.00 | 0.13 | 0.13 | 78 | 1012.9 |
| 20260906151553 | 21 | 0 | 0.0 | 6.4 | 0.00 | 0.13 | 0.13 | 79 | 1013.0 |
| 20260906151034 | 21 | 5 | 1.6 | 6.4 | 0.00 | 0.13 | 0.13 | 79 | 1012.9 |
| 20260906150535 | 21 | 5 | 1.6 | 8.0 | 0.00 | 0.13 | 0.13 | 80 | 1013.0 |
| 20260906145532 | 21 | 0 | 1.6 | 8.0 | 0.00 | 0.13 | 0.13 | 81 | 1013.0 |
| 20260906145032 | 21 | 0 | 1.6 | 6.4 | 0.00 | 0.13 | 0.13 | 82 | 1012.9 |
| 20260906144558 | 21 | 23 | 1.6 | 6.4 | 0.00 | 0.13 | 0.13 | 82 | 1012.9 |
| 20260906144034 | 21 | 316 | 1.6 | 9.7 | 0.00 | 0.13 | 0.13 | 82 | 1012.9 |
| 20260906143532 | 21 | 17 | 1.6 | 9.7 | 0.00 | 0.13 | 0.13 | 83 | 1012.8 |
| 20260906143055 | 21 | 322 | 1.6 | 8.0 | 0.00 | 0.13 | 0.13 | 83 | 1012.7 |
| 20260906142532 | 21 | 313 | 1.6 | 8.0 | 0.00 | 0.13 | 0.13 | 83 | 1012.7 |
| 20260906142031 | 21 | 283 | 1.6 | 8.0 | 0.00 | 0.13 | 0.13 | 83 | 1012.8 |
| 20260906141553 | 21 | 0 | 1.6 | 9.7 | 0.00 | 0.13 | 0.13 | 82 | 1012.6 |
| 20260906141032 | 21 | 32 | 3.2 | 9.7 | 0.00 | 0.13 | 0.13 | 81 | 1012.6 |
| 20260906140532 | 21 | 289 | 1.6 | 8.0 | 0.00 | 0.13 | 0.13 | 82 | 1012.5 |
| 20260906140108 | 21 | 360 | 0.0 | 6.4 | 0.00 | 0.13 | 0.13 | 83 | 1012.4 |
| 20260906135532 | 21 | 352 | 0.0 | 3.2 | 0.00 | 0.13 | 0.13 | 82 | 1012.3 |
| 20260906135033 | 21 | 281 | 0.0 | 3.2 | 0.00 | 0.13 | 0.13 | 82 | 1012.3 |
| 20260906134605 | 21 | 0 | 0.0 | 0.0 | 0.00 | 0.13 | 0.13 | 82 | 1012.2 |
| 20260906134036 | 21 | 0 | 0.0 | 0.0 | 0.00 | 0.13 | 0.13 | 81 | 1012.2 |
| 20260906133536 | 21 | 0 | 0.0 | 0.0 | 0.00 | 0.13 | 0.13 | 81 | 1012.0 |
| 20260906133119 | 21 | 0 | 0.0 | 0.0 | 0.00 | 0.13 | 0.13 | 81 | 1011.9 |
| 20260906132539 | 21 | 0 | 0.0 | 0.0 | 0.00 | 0.13 | 0.13 | 81 | 1011.8 |
| 20260906132035 | 21 | 0 | 0.0 | 0.0 | 0.00 | 0.13 | 0.13 | 81 | 1011.8 |
| 20260906131603 | 21 | 0 | 0.0 | 0.0 | 0.00 | 0.13 | 0.13 | 82 | 1011.8 |
| 20260906131035 | 21 | 0 | 0.0 | 0.0 | 0.00 | 0.13 | 0.13 | 82 | 1011.8 |
| 20260906130537 | 21 | 0 | 0.0 | 0.0 | 0.00 | 0.13 | 0.13 | 82 | 1011.7 |
| 20260906130112 | 21 | 0 | 0.0 | 0.0 | 0.00 | 0.13 | 0.13 | 82 | 1011.6 |
| 20260906125539 | 21 | 0 | 0.0 | 0.0 | 0.00 | 0.13 | 0.13 | 81 | 1011.5 |
| 20260906125036 | 21 | 0 | 0.0 | 1.6 | 0.00 | 0.13 | 0.13 | 81 | 1011.4 |
| 20260906124557 | 21 | 0 | 0.0 | 1.6 | 0.00 | 0.13 | 0.13 | 81 | 1011.4 |
| 20260906124033 | 20 | 0 | 0.0 | 0.0 | 0.00 | 0.13 | 0.13 | 81 | 1011.4 |
| 20260906123536 | 20 | 0 | 0.0 | 0.0 | 0.00 | 0.13 | 0.13 | 80 | 1011.3 |
| 20260906123053 | 20 | 0 | 0.0 | 0.0 | 0.00 | 0.13 | 0.13 | 80 | 1011.5 |
| 20260906122536 | 20 | 0 | 0.0 | 0.0 | 0.00 | 0.13 | 0.13 | 81 | 1011.5 |
| 20260906122035 | 20 | 0 | 0.0 | 0.0 | 0.00 | 0.13 | 0.13 | 81 | 1011.6 |
| 20260906121618 | 20 | 0 | 0.0 | 0.0 | 0.00 | 0.13 | 0.13 | 82 | 1011.5 |
| 20260906121037 | 20 | 0 | 0.0 | 0.0 | 0.00 | 0.13 | 0.13 | 83 | 1011.7 |
| 20260906120538 | 20 | 0 | 0.0 | 0.0 | 0.00 | 0.13 | 0.13 | 83 | 1011.6 |
| 20260906120101 | 20 | 0 | 0.0 | 0.0 | 0.00 | 0.13 | 0.13 | 83 | 1011.7 |
| 20260906115536 | 20 | 0 | 0.0 | 0.0 | 0.03 | 0.13 | 0.13 | 83 | 1011.7 |
| 20260906115035 | 20 | 0 | 0.0 | 1.6 | 0.03 | 0.13 | 0.13 | 83 | 1011.6 |
| 20260906114609 | 20 | 0 | 0.0 | 1.6 | 0.03 | 0.13 | 0.13 | 84 | 1011.7 |
| 20260906114036 | 20 | 0 | 0.0 | 1.6 | 0.03 | 0.13 | 0.13 | 86 | 1011.7 |
| 20260906113536 | 20 | 0 | 0.0 | 1.6 | 0.03 | 0.13 | 0.13 | 87 | 1011.7 |
| 20260906113106 | 20 | 0 | 0.0 | 1.6 | 0.03 | 0.13 | 0.13 | 87 | 1011.7 |
| 20260906112535 | 20 | 0 | 0.0 | 1.6 | 0.03 | 0.13 | 0.13 | 87 | 1011.7 |
| 20260906112036 | 21 | 0 | 0.0 | 4.8 | 0.03 | 0.13 | 0.13 | 87 | 1011.7 |
| 20260906111603 | 21 | 0 | 0.0 | 4.8 | 0.03 | 0.13 | 0.13 | 88 | 1011.7 |
| 20260906111035 | 21 | 64 | 0.0 | 3.2 | 0.03 | 0.13 | 0.13 | 90 | 1011.8 |
| 20260906110535 | 22 | 0 | 0.0 | 0.0 | 0.03 | 0.13 | 0.13 | 90 | 1011.9 |
| 20260906110059 | 22 | 0 | 0.0 | 0.0 | 0.03 | 0.13 | 0.13 | 90 | 1011.8 |
| 20260906105538 | 22 | 0 | 0.0 | 0.0 | 0.00 | 0.10 | 0.10 | 90 | 1011.8 |
| 20260906105039 | 22 | 0 | 0.0 | 1.6 | 0.00 | 0.10 | 0.10 | 90 | 1011.9 |
| 20260906104554 | 22 | 0 | 0.0 | 1.6 | 0.00 | 0.10 | 0.10 | 90 | 1011.9 |
| 20260906104036 | 22 | 0 | 0.0 | 1.6 | 0.00 | 0.10 | 0.10 | 90 | 1011.9 |
| 20260906103535 | 22 | 0 | 0.0 | 1.6 | 0.00 | 0.10 | 0.10 | 90 | 1012.0 |
| 20260906103052 | 22 | 0 | 0.0 | 0.0 | 0.00 | 0.10 | 0.10 | 90 | 1012.1 |
| 20260906102531 | 22 | 0 | 0.0 | 0.0 | 0.00 | 0.10 | 0.10 | 90 | 1012.0 |
| 20260906102031 | 22 | 0 | 0.0 | 0.0 | 0.00 | 0.10 | 0.10 | 90 | 1012.0 |
| 20260906101603 | 22 | 0 | 0.0 | 0.0 | 0.00 | 0.10 | 0.10 | 90 | 1012.0 |
| 20260906101036 | 22 | 0 | 0.0 | 0.0 | 0.00 | 0.10 | 0.10 | 90 | 1011.9 |
| 20260906100531 | 22 | 0 | 0.0 | 0.0 | 0.00 | 0.10 | 0.10 | 90 | 1011.9 |
| 20260906100057 | 22 | 0 | 0.0 | 1.6 | 0.00 | 0.10 | 0.10 | 90 | 1012.0 |
| 20260906095532 | 22 | 0 | 0.0 | 1.6 | 0.00 | 0.10 | 0.10 | 89 | 1012.0 |
| 20260906095032 | 22 | 0 | 0.0 | 1.6 | 0.03 | 0.10 | 0.10 | 89 | 1011.9 |
| 20260906094554 | 22 | 0 | 0.0 | 0.0 | 0.03 | 0.10 | 0.10 | 89 | 1012.0 |
| 20260906094032 | 22 | 0 | 0.0 | 0.0 | 0.03 | 0.10 | 0.10 | 89 | 1012.0 |
| 20260906093532 | 22 | 0 | 0.0 | 0.0 | 0.05 | 0.10 | 0.10 | 88 | 1012.0 |
| 20260906093053 | 22 | 0 | 0.0 | 0.0 | 0.08 | 0.10 | 0.10 | 88 | 1012.1 |
| 20260906092531 | 22 | 0 | 0.0 | 0.0 | 0.08 | 0.10 | 0.10 | 88 | 1012.2 |
| 20260906092032 | 22 | 0 | 0.0 | 1.6 | 0.08 | 0.10 | 0.10 | 88 | 1012.3 |
| 20260906091614 | 22 | 0 | 0.0 | 1.6 | 0.10 | 0.10 | 0.10 | 88 | 1012.2 |
| 20260906091031 | 22 | 0 | 0.0 | 0.0 | 0.10 | 0.10 | 0.10 | 88 | 1012.1 |
| 20260906090532 | 22 | 0 | 0.0 | 0.0 | 0.10 | 0.10 | 0.10 | 88 | 1012.1 |
| 20260906090106 | 22 | 0 | 0.0 | 0.0 | 0.10 | 0.10 | 0.10 | 88 | 1012.0 |
| 20260906085530 | 22 | 0 | 0.0 | 1.6 | 0.10 | 0.10 | 0.10 | 88 | 1012.1 |
| 20260906085032 | 22 | 0 | 0.0 | 1.6 | 0.08 | 0.08 | 0.08 | 88 | 1012.2 |
| 20260906084553 | 22 | 0 | 0.0 | 1.6 | 0.08 | 0.08 | 0.08 | 88 | 1012.3 |
| 20260906084032 | 22 | 0 | 0.0 | 1.6 | 0.08 | 0.08 | 0.08 | 88 | 1012.3 |
| 20260906083532 | 22 | 0 | 0.0 | 1.6 | 0.05 | 0.05 | 0.05 | 88 | 1012.4 |
| 20260906083103 | 22 | 281 | 0.0 | 1.6 | 0.03 | 0.03 | 0.03 | 87 | 1012.5 |
| 20260906082532 | 22 | 0 | 0.0 | 1.6 | 0.03 | 0.03 | 0.03 | 87 | 1012.6 |
| 20260906082031 | 22 | 0 | 0.0 | 1.6 | 0.03 | 0.03 | 0.03 | 87 | 1012.7 |
| 20260906081602 | 22 | 0 | 0.0 | 3.2 | 0.00 | 0.00 | 0.00 | 87 | 1012.7 |
| 20260906081031 | 22 | 0 | 0.0 | 3.2 | 0.00 | 0.00 | 0.00 | 87 | 1012.7 |
| 20260906080531 | 22 | 0 | 0.0 | 1.6 | 0.00 | 0.00 | 0.00 | 87 | 1012.7 |
| 20260906080109 | 22 | 0 | 0.0 | 3.2 | 0.00 | 0.00 | 0.00 | 86 | 1012.6 |
| 20260906075531 | 22 | 0 | 0.0 | 3.2 | 0.00 | 0.00 | 0.00 | 86 | 1012.7 |
| 20260906075031 | 22 | 281 | 0.0 | 1.6 | 0.00 | 0.00 | 0.00 | 86 | 1012.7 |
| 20260906074556 | 22 | 0 | 0.0 | 0.0 | 0.00 | 0.00 | 0.00 | 86 | 1012.6 |
| 20260906074031 | 22 | 0 | 0.0 | 0.0 | 0.00 | 0.00 | 0.00 | 86 | 1012.5 |
| 20260906073536 | 22 | 0 | 0.0 | 1.6 | 0.00 | 0.00 | 0.00 | 86 | 1012.5 |
| 20260906073052 | 22 | 0 | 0.0 | 1.6 | 0.00 | 0.00 | 0.00 | 86 | 1012.5 |
| 20260906072536 | 22 | 0 | 0.0 | 1.6 | 0.00 | 0.00 | 0.00 | 86 | 1012.6 |
| 20260906072035 | 22 | 0 | 0.0 | 1.6 | 0.00 | 0.00 | 0.00 | 86 | 1012.6 |
| 20260906071551 | 22 | 0 | 0.0 | 1.6 | 0.00 | 0.00 | 0.00 | 86 | 1012.7 |
| 20260906071035 | 22 | 322 | 0.0 | 1.6 | 0.00 | 0.00 | 0.00 | 86 | 1012.7 |
| 20260906070536 | 22 | 0 | 0.0 | 1.6 | 0.00 | 0.00 | 0.00 | 86 | 1012.5 |
| 20260906065538 | 22 | 0 | 0.0 | 3.2 | 0.00 | 0.00 | 0.00 | 86 | 1012.6 |
| 20260906065034 | 22 | 322 | 0.0 | 3.2 | 0.00 | 0.00 | 0.00 | 85 | 1012.6 |
| 20260906064555 | 22 | 322 | 0.0 | 1.6 | 0.00 | 0.00 | 0.00 | 85 | 1012.5 |
| 20260906064036 | 22 | 0 | 0.0 | 3.2 | 0.00 | 0.00 | 0.00 | 85 | 1012.7 |
| 20260906063535 | 22 | 0 | 0.0 | 3.2 | 0.00 | 0.00 | 0.00 | 85 | 1012.5 |
| 20260906063053 | 22 | 0 | 0.0 | 3.2 | 0.00 | 0.00 | 0.00 | 85 | 1012.5 |
| 20260906062535 | 22 | 0 | 0.0 | 4.8 | 0.00 | 0.00 | 0.00 | 85 | 1012.7 |
| 20260906062037 | 22 | 0 | 1.6 | 4.8 | 0.00 | 0.00 | 0.00 | 85 | 1012.7 |
| 20260906061605 | 22 | 352 | 0.0 | 3.2 | 0.00 | 0.00 | 0.00 | 85 | 1012.7 |
| 20260906061035 | 22 | 0 | 0.0 | 6.4 | 0.00 | 0.00 | 0.00 | 85 | 1012.6 |
| 20260906060535 | 22 | 0 | 1.6 | 6.4 | 0.00 | 0.00 | 0.00 | 85 | 1012.6 |
| 20260906060150 | 22 | 303 | 3.2 | 6.4 | 0.00 | 0.00 | 0.00 | 85 | 1012.6 |
| 20260906055535 | 22 | 303 | 3.2 | 4.8 | 0.00 | 0.00 | 0.00 | 85 | 1012.5 |
| 20260906055035 | 22 | 306 | 1.6 | 6.4 | 0.00 | 0.00 | 0.00 | 84 | 1012.6 |
| 20260906054554 | 22 | 0 | 1.6 | 6.4 | 0.00 | 0.00 | 0.00 | 84 | 1012.5 |
| 20260906054037 | 22 | 295 | 0.0 | 4.8 | 0.00 | 0.00 | 0.00 | 83 | 1012.6 |
| 20260906053535 | 22 | 320 | 1.6 | 4.8 | 0.00 | 0.00 | 0.00 | 83 | 1012.6 |
| 20260906053053 | 22 | 294 | 0.0 | 3.2 | 0.00 | 0.00 | 0.00 | 82 | 1012.6 |
| 20260906052536 | 22 | 0 | 0.0 | 4.8 | 0.00 | 0.00 | 0.00 | 81 | 1012.6 |
| 20260906052037 | 22 | 306 | 1.6 | 4.8 | 0.00 | 0.00 | 0.00 | 81 | 1012.7 |
| 20260906051605 | 22 | 306 | 1.6 | 3.2 | 0.00 | 0.00 | 0.00 | 80 | 1012.7 |
| 20260906051036 | 22 | 0 | 0.0 | 1.6 | 0.00 | 0.00 | 0.00 | 80 | 1012.6 |
| 20260906050535 | 22 | 0 | 0.0 | 1.6 | 0.00 | 0.00 | 0.00 | 81 | 1012.5 |
| 20260906050114 | 22 | 0 | 0.0 | 1.6 | 0.00 | 0.00 | 0.00 | 81 | 1012.4 |
| 20260906045535 | 22 | 0 | 0.0 | 1.6 | 0.00 | 0.00 | 0.00 | 81 | 1012.5 |
| 20260906045036 | 22 | 0 | 0.0 | 1.6 | 0.00 | 0.00 | 0.00 | 81 | 1012.6 |
| 20260906044554 | 22 | 0 | 0.0 | 1.6 | 0.00 | 0.00 | 0.00 | 80 | 1012.7 |
| 20260906044037 | 22 | 0 | 0.0 | 0.0 | 0.00 | 0.00 | 0.00 | 79 | 1012.7 |
| 20260906043535 | 22 | 0 | 0.0 | 0.0 | 0.00 | 0.00 | 0.00 | 78 | 1012.6 |
| 20260906043110 | 22 | 0 | 0.0 | 1.6 | 0.00 | 0.00 | 0.00 | 78 | 1012.6 |
| 20260906042536 | 22 | 0 | 0.0 | 1.6 | 0.00 | 0.00 | 0.00 | 78 | 1012.5 |
| 20260906042035 | 22 | 0 | 0.0 | 0.0 | 0.00 | 0.00 | 0.00 | 78 | 1012.4 |
| 20260906041601 | 22 | 0 | 0.0 | 0.0 | 0.00 | 0.00 | 0.00 | 78 | 1012.5 |
| 20260906041036 | 22 | 0 | 0.0 | 0.0 | 0.00 | 0.00 | 0.00 | 78 | 1012.5 |
| 20260906040535 | 22 | 0 | 0.0 | 1.6 | 0.00 | 0.00 | 0.00 | 78 | 1012.5 |
| 20260906035539 | 22 | 0 | 0.0 | 1.6 | 0.00 | 0.00 | 0.00 | 78 | 1012.4 |
| 20260906035034 | 22 | 0 | 0.0 | 1.6 | 0.00 | 0.00 | 0.00 | 79 | 1012.4 |
| 20260906034559 | 22 | 0 | 0.0 | 1.6 | 0.00 | 0.00 | 0.00 | 79 | 1012.4 |
| 20260906034031 | 22 | 0 | 0.0 | 1.6 | 0.00 | 0.00 | 0.00 | 79 | 1012.4 |
| 20260906033535 | 22 | 0 | 0.0 | 1.6 | 0.00 | 0.00 | 0.00 | 80 | 1012.3 |
| 20260906033052 | 22 | 0 | 0.0 | 1.6 | 0.00 | 0.00 | 0.00 | 80 | 1012.4 |
| 20260906032535 | 23 | 0 | 0.0 | 1.6 | 0.00 | 0.00 | 0.00 | 80 | 1012.4 |
| 20260906032035 | 23 | 0 | 0.0 | 3.2 | 0.00 | 0.00 | 0.00 | 80 | 1012.3 |
| 20260906031624 | 23 | 0 | 0.0 | 3.2 | 0.00 | 0.00 | 0.00 | 80 | 1012.3 |
| 20260906031035 | 23 | 0 | 0.0 | 3.2 | 0.00 | 0.00 | 0.00 | 80 | 1012.3 |
| 20260906030536 | 23 | 0 | 0.0 | 3.2 | 0.00 | 0.00 | 0.00 | 79 | 1012.4 |
| 20260906030054 | 23 | 338 | 0.0 | 4.8 | 0.00 | 0.00 | 0.00 | 79 | 1012.3 |
| 20260906025536 | 23 | 0 | 0.0 | 4.8 | 0.00 | 0.00 | 0.00 | 79 | 1012.2 |
| 20260906025035 | 23 | 323 | 1.6 | 4.8 | 0.00 | 0.00 | 0.00 | 79 | 1012.2 |
| 20260906024556 | 23 | 332 | 0.0 | 4.8 | 0.00 | 0.00 | 0.00 | 78 | 1012.2 |
| 20260906024035 | 23 | 0 | 1.6 | 4.8 | 0.00 | 0.00 | 0.00 | 77 | 1012.1 |
| 20260906023536 | 23 | 0 | 0.0 | 3.2 | 0.00 | 0.00 | 0.00 | 77 | 1012.1 |
| 20260906023112 | 23 | 0 | 0.0 | 3.2 | 0.00 | 0.00 | 0.00 | 77 | 1012.1 |
| 20260906022539 | 23 | 0 | 0.0 | 3.2 | 0.00 | 0.00 | 0.00 | 76 | 1012.1 |
| 20260906022035 | 23 | 0 | 0.0 | 3.2 | 0.00 | 0.00 | 0.00 | 76 | 1012.0 |
| 20260906021605 | 23 | 344 | 0.0 | 4.8 | 0.00 | 0.00 | 0.00 | 75 | 1012.0 |
| 20260906021037 | 23 | 337 | 0.0 | 4.8 | 0.00 | 0.00 | 0.00 | 74 | 1012.0 |
| 20260906020538 | 23 | 302 | 0.0 | 6.4 | 0.00 | 0.00 | 0.00 | 74 | 1012.1 |
| 20260906015535 | 24 | 311 | 1.6 | 6.4 | 0.00 | 0.00 | 0.00 | 73 | 1012.0 |
| 20260906015035 | 24 | 320 | 3.2 | 8.0 | 0.00 | 0.00 | 0.00 | 73 | 1012.2 |
| 20260906014558 | 24 | 315 | 3.2 | 8.0 | 0.00 | 0.00 | 0.00 | 73 | 1012.1 |
| 20260906014035 | 24 | 298 | 3.2 | 8.0 | 0.00 | 0.00 | 0.00 | 73 | 1012.1 |
| 20260906013535 | 24 | 320 | 3.2 | 6.4 | 0.00 | 0.00 | 0.00 | 71 | 1012.1 |
| 20260906013056 | 25 | 305 | 1.6 | 6.4 | 0.00 | 0.00 | 0.00 | 70 | 1012.2 |
| 20260906012534 | 25 | 314 | 3.2 | 8.0 | 0.00 | 0.00 | 0.00 | 69 | 1012.2 |
| 20260906012035 | 25 | 283 | 3.2 | 8.0 | 0.00 | 0.00 | 0.00 | 70 | 1012.3 |
| 20260906011615 | 25 | 296 | 4.8 | 8.0 | 0.00 | 0.00 | 0.00 | 66 | 1012.3 |
| 20260906011035 | 25 | 296 | 3.2 | 8.0 | 0.00 | 0.00 | 0.00 | 65 | 1012.2 |
| 20260906010535 | 25 | 330 | 3.2 | 8.0 | 0.00 | 0.00 | 0.00 | 65 | 1012.2 |
| 20260906010053 | 26 | 306 | 3.2 | 6.4 | 0.00 | 0.00 | 0.00 | 63 | 1012.2 |
| 20260906005534 | 26 | 315 | 3.2 | 6.4 | 0.00 | 0.00 | 0.00 | 61 | 1012.2 |
| 20260906005032 | 26 | 265 | 3.2 | 6.4 | 0.00 | 0.00 | 0.00 | 56 | 1012.2 |
| 20260906004602 | 26 | 292 | 3.2 | 9.7 | 0.00 | 0.00 | 0.00 | 61 | 1012.1 |
| 20260906004036 | 26 | 298 | 3.2 | 9.7 | 0.00 | 0.00 | 0.00 | 63 | 1012.1 |
| 20260906003535 | 26 | 315 | 3.2 | 9.7 | 0.00 | 0.00 | 0.00 | 61 | 1012.1 |
| 20260906003057 | 26 | 315 | 3.2 | 8.0 | 0.00 | 0.00 | 0.00 | 61 | 1012.1 |
| 20260906002532 | 26 | 269 | 3.2 | 9.7 | 0.00 | 0.00 | 0.00 | 60 | 1012.1 |
| 20260906002035 | 26 | 293 | 3.2 | 11.3 | 0.00 | 0.00 | 0.00 | 59 | 1012.1 |
| 20260906001611 | 27 | 300 | 3.2 | 11.3 | 0.00 | 0.00 | 0.00 | 57 | 1012.2 |
| 20260906001032 | 27 | 295 | 3.2 | 11.3 | 0.00 | 0.00 | 0.00 | 60 | 1012.2 |
| 20260906000532 | 27 | 302 | 6.4 | 11.3 | 0.00 | 0.00 | 0.00 | 60 | 1012.1 |
| 20260906000109 | 27 | 278 | 3.2 | 14.5 | 0.00 | 0.00 | 0.00 | 61 | 1012.1 |
| 20260905235536 | 27 | 286 | 4.8 | 14.5 | 0.00 | 0.00 | 0.00 | 63 | 1012.2 |
| 20260905235033 | 27 | 275 | 4.8 | 12.9 | 0.00 | 0.00 | 0.00 | 62 | 1012.1 |
| 20260905234559 | 27 | 301 | 4.8 | 14.5 | 0.00 | 0.00 | 0.00 | 61 | 1012.1 |
| 20260905234035 | 27 | 322 | 4.8 | 14.5 | 0.00 | 0.00 | 0.00 | 63 | 1012.2 |
| 20260905233535 | 27 | 299 | 6.4 | 14.5 | 0.00 | 0.00 | 0.00 | 64 | 1012.2 |
| 20260905233107 | 27 | 312 | 6.4 | 14.5 | 0.00 | 0.00 | 0.00 | 64 | 1012.1 |
| 20260905232533 | 27 | 315 | 6.4 | 11.3 | 0.00 | 0.00 | 0.00 | 63 | 1012.1 |
| 20260905232035 | 27 | 326 | 4.8 | 12.9 | 0.00 | 0.00 | 0.00 | 60 | 1012.1 |
| 20260905231618 | 27 | 296 | 4.8 | 12.9 | 0.00 | 0.00 | 0.00 | 63 | 1012.1 |
| 20260905231037 | 27 | 315 | 6.4 | 12.9 | 0.00 | 0.00 | 0.00 | 62 | 1012.1 |
| 20260905230535 | 27 | 318 | 6.4 | 12.9 | 0.00 | 0.00 | 0.00 | 59 | 1012.1 |
| 20260905230108 | 27 | 309 | 6.4 | 12.9 | 0.00 | 0.00 | 0.00 | 58 | 1012.2 |
| 20260905225536 | 28 | 325 | 6.4 | 12.9 | 0.00 | 0.00 | 0.00 | 57 | 1012.2 |
| 20260905225035 | 28 | 298 | 6.4 | 12.9 | 0.00 | 0.00 | 0.00 | 57 | 1012.1 |
| 20260905224555 | 28 | 309 | 4.8 | 12.9 | 0.00 | 0.00 | 0.00 | 55 | 1012.2 |
| 20260905224039 | 28 | 296 | 6.4 | 14.5 | 0.00 | 0.00 | 0.00 | 55 | 1012.2 |
| 20260905223535 | 27 | 243 | 6.4 | 14.5 | 0.00 | 0.00 | 0.00 | 51 | 1012.2 |
| 20260905223105 | 27 | 282 | 6.4 | 14.5 | 0.00 | 0.00 | 0.00 | 55 | 1012.3 |
| 20260905222532 | 27 | 311 | 4.8 | 14.5 | 0.00 | 0.00 | 0.00 | 59 | 1012.3 |
| 20260905222034 | 27 | 308 | 6.4 | 12.9 | 0.00 | 0.00 | 0.00 | 59 | 1012.4 |
| 20260905221621 | 27 | 279 | 4.8 | 17.7 | 0.00 | 0.00 | 0.00 | 63 | 1012.4 |
| 20260905221032 | 27 | 297 | 6.4 | 17.7 | 0.00 | 0.00 | 0.00 | 62 | 1012.5 |
| 20260905220535 | 27 | 296 | 6.4 | 12.9 | 0.00 | 0.00 | 0.00 | 60 | 1012.6 |
| 20260905220057 | 27 | 276 | 6.4 | 12.9 | 0.00 | 0.00 | 0.00 | 63 | 1012.6 |
| 20260905215535 | 27 | 314 | 6.4 | 14.5 | 0.00 | 0.00 | 0.00 | 64 | 1012.6 |
| 20260905215035 | 27 | 296 | 6.4 | 14.5 | 0.00 | 0.00 | 0.00 | 64 | 1012.7 |
| 20260905214601 | 27 | 296 | 6.4 | 14.5 | 0.00 | 0.00 | 0.00 | 63 | 1012.7 |
| 20260905214035 | 27 | 311 | 8.0 | 14.5 | 0.00 | 0.00 | 0.00 | 62 | 1012.7 |
| 20260905213535 | 27 | 309 | 6.4 | 14.5 | 0.00 | 0.00 | 0.00 | 62 | 1012.7 |
| 20260905213105 | 27 | 302 | 6.4 | 14.5 | 0.00 | 0.00 | 0.00 | 64 | 1012.8 |
| 20260905212535 | 27 | 305 | 6.4 | 14.5 | 0.00 | 0.00 | 0.00 | 65 | 1012.8 |
| 20260905212035 | 27 | 292 | 6.4 | 12.9 | 0.00 | 0.00 | 0.00 | 67 | 1012.9 |
| 20260905211600 | 27 | 279 | 6.4 | 12.9 | 0.00 | 0.00 | 0.00 | 67 | 1012.9 |
| 20260905211035 | 27 | 285 | 4.8 | 12.9 | 0.00 | 0.00 | 0.00 | 67 | 1012.9 |
| 20260905210536 | 27 | 313 | 4.8 | 14.5 | 0.00 | 0.00 | 0.00 | 67 | 1012.9 |
| 20260905210108 | 27 | 343 | 4.8 | 14.5 | 0.00 | 0.00 | 0.00 | 66 | 1012.9 |
| 20260905205536 | 27 | 292 | 6.4 | 14.5 | 0.00 | 0.00 | 0.00 | 67 | 1012.9 |
| 20260905205035 | 27 | 277 | 6.4 | 12.9 | 0.00 | 0.00 | 0.00 | 66 | 1013.0 |
| 20260905204552 | 27 | 339 | 4.8 | 12.9 | 0.00 | 0.00 | 0.00 | 67 | 1013.0 |
| 20260905204034 | 27 | 321 | 4.8 | 12.9 | 0.00 | 0.00 | 0.00 | 68 | 1013.1 |
| 20260905203535 | 27 | 321 | 4.8 | 12.9 | 0.00 | 0.00 | 0.00 | 68 | 1013.1 |
| 20260905203102 | 26 | 314 | 3.2 | 12.9 | 0.00 | 0.00 | 0.00 | 68 | 1013.1 |
| 20260905202532 | 26 | 299 | 3.2 | 12.9 | 0.00 | 0.00 | 0.00 | 67 | 1013.1 |
| 20260905202032 | 26 | 293 | 3.2 | 12.9 | 0.00 | 0.00 | 0.00 | 70 | 1013.2 |
| 20260905201600 | 26 | 266 | 6.4 | 12.9 | 0.00 | 0.00 | 0.00 | 70 | 1013.2 |
| 20260905201032 | 26 | 320 | 4.8 | 11.3 | 0.00 | 0.00 | 0.00 | 70 | 1013.2 |
| 20260905200537 | 26 | 0 | 4.8 | 9.7 | 0.00 | 0.00 | 0.00 | 68 | 1013.3 |
| 20260905200118 | 26 | 310 | 4.8 | 9.7 | 0.00 | 0.00 | 0.00 | 68 | 1013.4 |
| 20260905195535 | 25 | 5 | 3.2 | 11.3 | 0.00 | 0.00 | 0.00 | 68 | 1013.4 |
| 20260905195035 | 25 | 317 | 4.8 | 11.3 | 0.00 | 0.00 | 0.00 | 70 | 1013.5 |
| 20260905194603 | 25 | 306 | 3.2 | 11.3 | 0.00 | 0.00 | 0.00 | 69 | 1013.5 |
| 20260905194035 | 25 | 313 | 1.6 | 11.3 | 0.00 | 0.00 | 0.00 | 69 | 1013.7 |